Home   Weather   Geilo   Past weeks
Flag for Norway

Past Weather in Geilo, Norway — Yesterday and Last 2 Weeks

Now
37 °F

Chilly.


Feels Like: 34 °F
Forecast: 36 / 29 °F
Wind: 3 mph from East

Location: Filefjell

Current Time: Oct 19, 2019 at 4:58:25 pm

Latest Report: Oct 19, 2019 at 4:00 pm


Visibility: N/A

Pressure: 29.60 "Hg (26.86 "Hg at 783m altitude)

Humidity: 81%

Dew Point: 31 °F

Location of GeiloLocation

Past Weather in Geilo — Graph

°F

Geilo Temperature Yesterday

Maximum temperature yesterday: 37 °F (at 1:00 pm)
Minimum temperature yesterday: 31 °F (at 9:00 am)
Average temperature yesterday: 33 °F

High & Low Weather Summary for the Past Weeks

 TemperatureHumidityPressure
High42 °F (Oct 7, 1:00 pm)97% (Oct 12, 3:00 am)30.45 "Hg (Oct 12, 3:00 am)
Low11 °F (Oct 6, 8:00 am)30% (Oct 7, 1:00 pm)29.21 "Hg (Oct 12, 12:00 am)
Average32 °F88%29.74 "Hg
* Reported Oct 4 3:00 pm — Oct 19 3:00 pm, Geilo. Weather by CustomWeather, © 2019

Note: Actual official high and low records may vary slightly from our data, if they occured in-between our weather recording intervals... More about our weather records

Advertising

Geilo Weather History for the Previous 24 Hours

Scroll right to see more
 ConditionsComfort  
Time TempWeatherWind HumidityBarometerVisibility
3:00 pm
Sat, Oct 19
36 °FChilly.1 mph84%29.60 "HgN/A
2:00 pm35 °FChilly.3 mph91%29.59 "HgN/A
1:00 pm35 °FChilly.5 mph90%29.58 "HgN/A
12:00 pm36 °FChilly.3 mph90%29.55 "HgN/A
11:00 am35 °FChilly.3 mph93%29.55 "HgN/A
10:00 am35 °FChilly.5 mph91%29.54 "HgN/A
9:00 am33 °FChilly.1 mph96%29.53 "HgN/A
8:00 am33 °FChilly.No wind95%29.50 "HgN/A
7:00 am33 °FChilly.1 mph95%29.53 "HgN/A
6:00 am33 °FChilly.1 mph95%29.54 "HgN/A
5:00 am33 °FChilly.3 mph93%29.55 "HgN/A
4:00 am33 °FChilly.3 mph93%29.57 "HgN/A
3:00 am34 °FChilly.5 mph91%29.58 "HgN/A
2:00 am33 °FChilly.3 mph95%29.61 "HgN/A
1:00 am33 °FChilly.3 mph95%29.64 "HgN/A
12:00 am33 °FChilly.7 mph94%29.65 "HgN/A
11:00 pm
Fri, Oct 18
33 °FChilly.6 mph92%29.66 "HgN/A
10:00 pm33 °FChilly.5 mph91%29.67 "HgN/A
9:00 pm33 °FChilly.5 mph91%29.68 "HgN/A
8:00 pm33 °FChilly.3 mph95%29.70 "HgN/A
7:00 pm33 °FChilly.2 mph95%29.71 "HgN/A
6:00 pm32 °FChilly.5 mph94%29.71 "HgN/A
5:00 pm33 °FChilly.5 mph92%29.71 "HgN/A
4:00 pm34 °FChilly.5 mph87%29.70 "HgN/A
Weather by CustomWeather, © 2019

See weather overview